TimeCST,TemperatureF,Dew PointF,Humidity,Sea Level PressureIn,VisibilityMPH,Wind Direction,Wind SpeedMPH,Gust SpeedMPH,PrecipitationIn,Events,Conditions,WindDirDegrees,DateUTC
12:53 AM,26.1,23.0,88,29.93,10.0,North,8.1,-,N/A,,Partly Cloudy,10,2013-12-19 06:53:00
1:10 AM,26.6,23.0,86,29.89,10.0,NNE,11.5,-,N/A,,Mostly Cloudy,20,2013-12-19 07:10:00
1:53 AM,27.0,23.0,85,29.94,10.0,NNE,15.0,-,N/A,,Overcast,20,2013-12-19 07:53:00
2:53 AM,25.0,23.0,92,29.95,5.0,ENE,21.9,25.3,N/A,,Overcast,70,2013-12-19 08:53:00
3:27 AM,21.2,17.6,86,29.94,10.0,ENE,18.4,-,N/A,,Overcast,60,2013-12-19 09:27:00
3:53 AM,19.9,16.0,85,30.00,10.0,ENE,18.4,-,N/A,,Overcast,60,2013-12-19 09:53:00
4:53 AM,17.1,14.0,88,30.02,10.0,ENE,18.4,-,N/A,,Overcast,60,2013-12-19 10:53:00
5:53 AM,16.0,12.0,84,30.02,10.0,ENE,13.8,-,N/A,,Overcast,70,2013-12-19 11:53:00
6:06 AM,15.8,10.4,79,29.96,10.0,NE,15.0,-,N/A,,Overcast,50,2013-12-19 12:06:00
6:14 AM,15.8,10.4,79,29.96,10.0,ENE,11.5,20.7,N/A,,Overcast,70,2013-12-19 12:14:00
6:34 AM,14.0,10.4,86,29.96,10.0,ENE,12.7,-,N/A,,Overcast,60,2013-12-19 12:34:00
6:53 AM,12.9,9.0,84,30.05,10.0,ENE,13.8,-,N/A,,Overcast,70,2013-12-19 12:53:00
7:00 AM,12.2,8.6,85,29.99,10.0,NE,15.0,-,N/A,,Overcast,50,2013-12-19 13:00:00
7:10 AM,12.2,8.6,85,30.00,10.0,ENE,11.5,-,N/A,,Overcast,60,2013-12-19 13:10:00
7:40 AM,12.2,6.8,79,30.00,10.0,ENE,15.0,-,N/A,,Overcast,60,2013-12-19 13:40:00
7:53 AM,10.9,6.1,81,30.08,10.0,ENE,15.0,-,N/A,,Overcast,60,2013-12-19 13:53:00
8:53 AM,9.0,3.9,80,30.10,10.0,NE,15.0,-,N/A,,Overcast,40,2013-12-19 14:53:00
9:53 AM,8.1,1.9,76,30.11,10.0,NE,13.8,-,N/A,,Overcast,40,2013-12-19 15:53:00
10:53 AM,8.1,1.9,76,30.13,10.0,NNE,12.7,-,N/A,,Overcast,20,2013-12-19 16:53:00
11:53 AM,9.0,1.9,73,30.12,10.0,NNE,17.3,-,N/A,,Overcast,30,2013-12-19 17:53:00
12:44 PM,8.6,3.2,79,30.00,2.0,NE,20.7,25.3,0.00,Snow,Light Snow,40,2013-12-19 18:44:00
12:53 PM,9.0,3.0,77,30.09,2.0,NNE,19.6,-,0.00,Snow,Light Snow,30,2013-12-19 18:53:00
1:01 PM,8.6,3.2,79,30.02,1.2,NNE,17.3,-,0.00,Snow,Light Snow,30,2013-12-19 19:01:00
1:15 PM,8.6,3.2,79,30.03,0.8,NNE,17.3,-,0.00,Snow,Light Snow,20,2013-12-19 19:15:00
1:26 PM,8.6,3.2,79,30.02,0.5,NNE,15.0,-,0.00,Snow,Snow,20,2013-12-19 19:26:00
1:40 PM,8.6,3.2,79,30.01,0.2,NNE,18.4,-,0.00,Snow,Heavy Snow,20,2013-12-19 19:40:00
1:45 PM,8.6,3.2,79,30.01,0.5,NNE,15.0,-,0.00,Snow,Snow,20,2013-12-19 19:45:00
1:53 PM,8.1,3.9,83,30.10,0.5,North,18.4,24.2,0.00,Fog-Snow,Snow,10,2013-12-19 19:53:00
2:13 PM,8.6,3.2,79,30.03,0.2,North,17.3,-,0.00,Fog-Snow,Snow,10,2013-12-19 20:13:00
2:53 PM,8.1,3.9,83,30.12,0.2,NNE,15.0,-,0.01,Fog-Snow,Snow,20,2013-12-19 20:53:00
3:53 PM,7.0,3.0,84,30.12,0.2,North,17.3,23.0,0.01,Fog-Snow,Snow,10,2013-12-19 21:53:00
4:23 PM,6.8,1.4,79,30.02,0.5,North,17.3,-,0.01,Fog-Snow,Snow,10,2013-12-19 22:23:00
4:53 PM,6.1,1.9,83,30.13,0.5,NNE,20.7,-,0.01,Fog-Snow,Snow,20,2013-12-19 22:53:00
5:53 PM,5.0,1.0,84,30.17,0.5,North,11.5,-,0.01,Fog-Snow,Snow,350,2013-12-19 23:53:00
6:53 PM,3.0,-0.9,84,30.22,0.8,North,12.7,-,0.01,Snow,Light Snow,350,2013-12-20 00:53:00
7:21 PM,3.2,-0.4,85,30.11,1.0,NNW,12.7,-,0.00,Snow,Light Snow,340,2013-12-20 01:21:00
7:53 PM,3.0,-2.0,80,30.22,1.5,NNW,13.8,-,0.00,Snow,Light Snow,340,2013-12-20 01:53:00
8:36 PM,3.2,-0.4,85,30.10,2.5,NNW,10.4,-,0.01,Snow,Light Snow,330,2013-12-20 02:36:00
8:53 PM,3.0,-0.9,84,30.22,1.5,NNW,13.8,-,0.01,Snow,Light Snow,340,2013-12-20 02:53:00
9:21 PM,3.2,-0.4,85,30.11,1.0,NNW,16.1,-,0.00,Snow,Light Snow,340,2013-12-20 03:21:00
9:53 PM,3.9,-0.0,84,30.22,1.0,NNW,15.0,-,0.00,Snow,Light Snow,340,2013-12-20 03:53:00
10:17 PM,5.0,-0.4,78,30.10,1.5,NNW,16.1,-,0.00,Snow,Light Snow,340,2013-12-20 04:17:00
10:31 PM,5.0,-0.4,78,30.10,2.0,NNW,15.0,-,0.00,Snow,Light Snow,340,2013-12-20 04:31:00
10:45 PM,3.2,-0.4,85,30.10,2.5,North,15.0,-,0.00,Snow,Light Snow,350,2013-12-20 04:45:00
10:53 PM,3.9,-0.0,84,30.22,3.0,North,12.7,-,0.00,Snow,Light Snow,350,2013-12-20 04:53:00
11:53 PM,3.9,-0.0,84,30.20,7.0,NNW,12.7,-,0.00,,Overcast,330,2013-12-20 05:53:00